SCP
0 0 0 0 0 0 0 0 0 0 0 0 0 0 0 0 0 0 0 0 0 0 0 0 0 0 0 0 0 0 0 0 0 0 -0 -0 -0 -0 -0 -0 -0 -0 -0 0
0 0 0 0 0 0 0 0 0 0 0 0 0 0 0 0 0 0 0 0 0 0 0 0 0 -0 -0 0 0 0 0 0 0 0 0 0 0 0 -0 -0 -0 -0 -0 -0
0 0 0 0 0 0 0 0 0 0 0 0 0 0 0 0 0 0 0 0 0 0 0 0 0 0 0 0 0 0 0 0 0 0 0 0 0 0 0 0 0 0 -0 -0
0 0 0 0 0 0 0 0 0 0 0 0 0 0 0 0 0 0 0 0 0 0 0 0 0 0 0 0 0 0 0 0 0 0 0 0 0 0 0 0 0 0 0 0
0 0 0 0 0 0 0 0 0 0 0 0 0 0 0 0 0 0 0 0 0 0 0 0 0 0 0 0 0 0 0 0 0 0 0 0 0 0 0 0 0 0 0 0
0 0 0 0 0 0 0 0 0 0 0 0 0 0 0 0 0 0 0 0 0 0 0 0 0 0 0 0 0 0 0 0 0 0 0 0 0 0 0 0 0 0 0 0
0 0 0 0 0 0 0 0 0 0 0 0 0 0 0 0 0 0 0 0 0 0 0 0 0 0 0 0 0 0 0 0 0 0 0 0 0 0 0 0 0 0 0 0
0 0 0 0 0 0 0 0 0 0 0 0 0 0 0 0 0 0 0 0 0 0 0 0 0 0 0 0 0 0 0 0 0 0 0 0 0 0 0 0 0 0 0 0
0 0 0 0 0 0 0 0 0 0 0 0 0 0 0 0 0 0 0 0 0 0 0 0 0 0 0 0 0 0 0 0 0 0 0 0 0 0 0 0 0 0 0 0
0 0 0 0 0 0 0 0 0 0 0 0 0 0 0 0 0 0 0 0 0 0 0 0 0 0 0 0 0 0 0 0 0 0 0 0 0 0 0 0 0 0 0 0
0 0 0 0 0 0 0 0 0 0 0 0 0 0 0 0 0 0 0 0 0 0 0 0 0 0 0 0 0 0 0 0 0 0 0 0 0 0 0 0 0 0 0 0
0 0 0 0 0 0 0 0 0 0 0 0 0 0 0 0 0 0 0 0 0 0 0 0 0 0 0 0 0 0 0 0 0 0 0 0 0 0 0 0 0 0 0 0
0 0 0 0 0 0 0 0 0 0 0 0 0 0 0 0 0 0 0 0 0 0 0 0 0 0 0 0 0 0 0 0 0 0 0 0 0 0 0 0 0 0 0 0
0 0 0 0 0 0 0 0 0 0 0 0 0 0 0 0 0 0 0 0 0 0 0 0 0 0 0 0 0 0 0 0 0 0 0 0 0 0 0 0 0 0 0 0
0 0 0 0 0 0 0 0 0 0 0 0 0 0 0 0 0 0 0 0 0 0 0 0 0 0 0 0 0 0 0 0 0 0 0 0 0 0 0 0 0 0 0 0
0 0 0 0 0 0 0 0 0 0 0 0 0 0 0 0 0 0 0 0 0 0 0 0 0 0 0 0 0 0 0 -0 0 0 0 0 0 0 0 0 0 0 0 0
0 0 0 0 0 0 0 0 0 0 0 0 0 0 0 0 0 0 0 0 0 0 0 0 0 0 0 0 0 0 0 0 0 0 0 0 0 0 0 0 0 0 0 0
0 0 0 0 0 0 0 0 0 0 0 0 0 0 0 0 0 0 0 0 0 0 0 0 0 0 0 0 0 0 0 0 0 0 0 0 0 0 0 0 0 0 0 0
0 0 0 0 0 0 0 0 0 0 0 0 0 0 0 0 0 0 0 0 0 0 0 0 0 0 0 0 0 0 0 0 0 0 0 0 0 0 0 0 0 0 0 0
0 0 0 0 0 0 0 0 0 0 0 0 0 0 0 0 0 0 0 0 0 0 0 0 0 0 0 0 0 0 0 0 0 0 0 0 0 0 0 0 0 0 0 0
0 0 0 0 0 0 0 0 0 0 0 0 0 0 0 0 0 0 0 0 0 0 0 0 0 0 0 0 0 0 0 0 0 0 0 0 0 0 0 0 0 0 0 0
0 0 0 0 0 0 0 0 0 0 0 0 0 0 0 0 0 0 0 0 0 0 0 0 0 0 0 0 0 0 0 0 0 0 0 0 0 0 0 0 0 0 0 0
0 0 0 0 0 0 0 0 0 0 0 0 0 0 0 0 0 0 0 0 0 0 0 0 0 0 0 0 0 0 0 0 0 0 0 0 0 0 0 0 0 0 0 0
0 0 0 0 0 0 0 0 0 0 0 0 0 0 0 0 0 0 0 0 0 0 0 0 0 0 0 0 0 0 0 0 0 0 0 0 0 0 0 0 0 0 0 0
0 0 0 0 0 0 0 0 0 0 0 0 0 0 0 0 0 0 0 0 0 0 0 0 0 0 0 0 0 0 0 0 0 0 0 0 0 0 0 0 0 0 0 0
0 0 0 0 0 0 0 0 0 0 0 0 0 0 0 0 0 0 0 0 0 0 0 0 0 0 0 0 0 0 0 0 0 0 0 0 0 0 0 0 0 0 0 0
0 0 0 0 0 0 0 0 0 0 0 0 0 0 0 0 0 0 0 0 0 0 0 -0 -0 -0 0 0 0 0 0 0 0 0 0 0 0 0 0 0 0 0 0 0
Wind_Speed_500mb
7 1 6 9 20 27 12 23 16 40 35 38 29 8 4 13 23 26 26 27 24 22 17 20 28 31 32 38 45 49 51 55 59 64 69 72 74 76 77 77 78 80 82 82
9 7 11 20 36 24 31 30 31 37 43 30 8 11 12 19 21 19 14 6 5 11 25 29 30 30 33 38 43 51 53 58 65 70 74 77 80 84 87 89 92 95 98 101
12 1 9 16 26 34 21 23 13 17 18 4 9 9 13 11 9 9 15 13 13 18 22 21 20 26 32 36 40 42 52 63 70 71 75 78 84 90 96 100 104 109 113 115
8 6 3 17 6 10 17 16 8 1 8 17 13 12 9 7 12 5 7 14 24 24 21 26 29 34 38 42 47 55 65 68 68 72 77 84 91 96 102 104 108 111 115 117
7 11 11 27 11 12 12 15 10 10 7 21 15 4 7 1 9 19 27 34 25 27 30 31 32 34 40 48 55 62 66 73 77 83 89 91 93 95 97 100 106 109 111 113
4 10 18 12 6 19 15 16 22 26 19 27 15 3 9 23 34 37 36 33 34 34 32 33 36 43 47 51 54 62 73 82 85 87 90 93 94 97 98 97 102 103 109 107
29 12 14 12 20 16 10 17 8 22 23 34 10 21 22 45 38 36 40 39 39 38 35 39 43 46 48 54 63 73 79 84 86 86 89 93 96 95 94 92 90 89 90 88
5 3 15 22 10 13 14 13 12 18 24 30 34 44 50 46 39 40 46 43 40 39 43 43 44 45 51 62 71 77 80 82 82 84 88 89 91 92 85 80 81 83 84 85
20 14 13 34 20 32 34 24 24 29 40 47 56 59 48 48 47 44 46 46 44 46 45 43 43 48 58 67 74 76 78 79 80 84 83 83 84 81 76 74 77 79 79 83
2 12 27 49 58 59 54 54 63 63 58 52 50 56 53 54 56 55 50 47 47 47 43 41 43 51 62 68 71 73 76 77 79 81 82 79 71 67 71 73 76 79 82 89
18 32 45 54 66 73 69 62 58 58 61 56 50 49 53 55 55 51 50 47 49 43 42 41 46 55 61 64 67 69 70 72 75 79 79 75 67 66 66 68 66 74 82 83
27 48 37 42 56 58 48 47 48 54 59 49 45 53 53 51 51 50 47 47 45 45 44 44 52 59 59 60 62 62 67 69 73 76 74 71 72 74 62 62 62 64 68 71
54 70 64 69 68 63 57 64 65 58 50 49 50 49 49 49 49 46 49 41 42 45 43 47 54 55 54 56 54 55 60 65 69 70 68 69 70 73 81 79 72 66 62 63
68 67 53 69 51 63 53 52 48 41 42 45 45 43 45 44 43 44 41 41 43 45 44 49 53 50 51 50 48 49 53 58 63 64 63 62 65 69 72 77 81 87 75 67
73 74 74 69 56 53 52 47 44 44 44 43 42 43 41 42 43 41 37 39 45 46 45 50 52 45 45 43 42 45 50 53 56 58 56 55 59 64 69 72 74 78 80 75
63 58 56 58 58 47 40 40 42 44 43 44 41 40 41 42 41 37 36 42 49 48 44 47 47 43 38 37 39 41 44 47 50 50 50 52 56 61 66 68 69 70 71 71
46 45 45 45 45 40 40 38 38 38 37 36 36 38 37 38 39 38 40 45 50 50 48 47 44 36 33 32 35 38 39 41 45 46 45 47 50 53 57 58 61 63 64 60
51 49 44 38 35 33 32 31 30 30 32 34 37 38 37 38 40 42 44 47 48 46 42 42 37 32 26 29 31 32 33 36 38 41 40 41 42 45 49 51 53 59 63 63
48 42 36 32 28 26 26 27 27 27 28 32 34 36 40 42 46 50 50 52 49 48 33 34 29 25 23 26 28 27 28 31 32 33 34 35 35 38 43 47 49 52 56 61
38 35 31 27 24 23 24 24 23 23 28 31 35 39 43 43 46 49 50 52 43 41 31 25 23 22 23 24 24 23 25 27 29 30 31 31 33 37 39 41 45 48 51 53
32 29 26 23 21 21 21 20 20 22 28 33 38 42 46 46 44 46 46 44 22 26 22 21 23 23 22 21 21 20 23 24 26 27 29 31 31 32 36 39 41 45 48 49
29 25 21 18 16 15 16 18 20 23 26 31 35 38 41 37 35 33 31 30 19 18 18 21 21 21 20 20 19 20 22 23 24 24 25 26 29 31 33 35 38 40 41 43
25 21 19 16 13 12 13 16 19 21 23 26 27 27 29 27 23 24 20 15 18 20 22 19 18 18 18 18 18 19 20 21 21 23 24 25 28 29 30 31 32 35 37 40
22 19 14 10 7 8 12 15 17 19 20 20 20 18 18 17 13 17 20 21 20 22 20 19 18 17 17 18 18 18 20 20 21 22 22 23 25 28 29 30 31 31 32 33
16 15 12 7 5 6 10 12 13 14 13 12 13 14 13 16 20 18 20 21 20 20 20 19 16 17 18 18 19 19 20 21 22 22 22 23 24 26 28 30 31 32 32 32
12 8 5 3 3 4 6 7 7 8 8 8 11 15 14 16 18 19 19 19 18 17 15 16 17 17 18 20 21 22 23 23 23 24 24 24 25 26 27 28 29 30 30 30
7 6 4 3 2 1 1 3 5 7 9 10 9 12 13 15 15 16 16 16 16 17 19 21 21 22 23 25 26 27 27 28 29 29 28 29 29 30 30 30 31 31 31 30
Wind_Direction_500mb
257 350 125 208 257 273 214 243 224 267 268 269 291 312 191 168 179 188 201 215 237 234 260 290 300 308 311 317 325 325 322 321 323 322 321 319 317 314 313 312 311 310 307 305
301 209 248 262 261 262 256 259 253 255 264 276 247 257 208 193 180 172 160 188 233 247 263 281 287 289 289 295 299 305 305 308 313 312 312 312 311 311 310 309 307 304 302 301
264 195 58 309 250 245 234 233 239 246 255 213 266 232 162 169 210 261 279 275 251 265 291 290 289 287 283 277 282 286 295 298 305 308 309 309 308 306 305 303 301 300 299 298
226 45 241 245 248 205 214 242 212 180 231 223 200 174 182 231 277 262 236 260 281 288 286 274 275 282 284 287 291 298 302 307 310 310 308 306 304 302 301 301 299 297 295 294
178 198 305 298 244 184 166 267 193 208 227 197 167 148 256 229 280 298 295 297 283 274 277 276 277 275 284 293 301 306 311 313 312 309 308 308 306 305 303 300 298 296 294 292
75 190 212 239 160 145 114 273 219 222 234 181 166 135 247 311 311 293 280 273 269 269 270 273 283 294 300 304 309 313 314 313 312 313 313 312 311 309 307 305 301 299 295 294
223 229 274 238 172 143 108 264 199 226 226 189 186 219 277 314 301 291 277 268 260 263 269 282 292 299 305 311 316 317 315 314 315 316 315 315 314 314 312 310 307 305 303 304
94 181 270 195 122 166 216 179 211 226 235 219 245 266 288 299 289 281 268 251 252 268 279 287 295 303 310 317 319 316 314 315 317 318 318 318 319 318 316 314 311 311 311 311
188 204 213 186 204 248 253 236 248 255 269 270 272 272 282 287 286 276 265 254 263 275 281 289 298 306 314 319 316 315 316 319 320 320 322 326 322 317 317 317 314 311 309 308
47 215 240 260 265 268 263 259 275 279 279 278 273 281 286 289 281 273 261 262 269 276 279 288 297 309 317 316 314 317 318 321 324 325 329 326 323 324 321 319 316 312 310 309
255 258 260 264 264 268 270 274 276 281 278 278 277 277 288 284 270 259 258 265 275 277 283 290 303 313 316 314 314 317 319 324 327 331 327 327 331 331 322 319 310 306 302 302
251 251 237 252 263 272 266 268 281 282 280 264 271 289 286 272 260 257 258 267 272 279 284 297 307 313 313 313 314 317 322 329 332 331 328 334 335 332 332 324 309 305 302 301
246 257 260 259 266 274 268 278 284 277 263 273 282 280 271 261 259 260 269 269 274 279 289 301 307 312 310 311 312 320 326 331 333 330 333 339 337 333 331 335 332 325 315 311
258 257 259 259 259 272 269 274 268 259 266 270 269 266 262 260 264 270 269 270 274 282 297 303 307 311 308 308 313 322 329 332 334 332 339 340 339 336 333 331 327 332 336 326
253 259 258 263 262 259 262 258 260 266 267 264 264 264 264 266 268 269 271 276 279 289 301 304 306 308 304 305 314 326 329 335 335 337 341 342 340 339 339 335 331 329 331 335
263 262 259 257 257 255 254 258 260 262 263 264 263 261 264 266 267 270 272 279 287 295 300 300 301 301 301 305 316 323 329 337 339 337 343 346 346 345 343 342 341 339 339 341
251 248 246 244 248 252 263 263 262 263 263 261 260 261 261 264 269 276 282 287 292 297 300 299 296 295 297 305 313 322 325 338 338 341 346 350 351 350 351 352 352 351 352 352
254 252 259 260 260 254 254 256 256 254 251 256 260 263 268 276 285 287 290 291 293 295 294 288 286 287 294 303 309 313 325 334 341 343 350 355 357 357 359 2 5 4 6 10
254 255 253 250 248 243 242 244 246 250 255 261 269 278 285 291 293 294 295 293 295 294 287 278 274 282 290 296 302 311 323 330 341 349 356 359 2 4 5 7 9 13 13 15
241 242 241 239 236 238 239 242 250 259 267 276 284 289 291 293 294 296 293 293 296 287 280 267 272 281 284 289 297 307 320 330 340 352 358 2 3 5 7 9 9 13 15 19
227 226 226 224 225 226 233 245 259 270 281 288 292 296 298 300 298 293 291 292 293 277 269 280 283 282 282 287 292 305 315 324 333 344 352 360 4 4 6 9 11 13 14 16
212 211 212 215 218 230 246 262 273 282 289 294 296 298 297 300 296 292 289 293 284 276 274 281 279 280 284 290 299 306 308 313 319 328 337 346 353 358 3 4 6 9 11 13
198 203 204 204 222 247 269 285 295 301 303 302 303 302 304 308 306 301 300 299 286 288 290 287 285 283 285 294 300 305 308 309 312 317 324 333 338 341 346 351 355 358 1 4
191 192 196 209 234 272 292 300 305 310 315 314 314 312 310 311 310 296 290 285 287 290 288 286 285 287 293 297 301 306 308 311 315 317 322 331 333 334 335 339 343 346 347 349
185 189 193 211 258 285 296 309 315 320 318 314 311 310 309 314 311 304 295 294 292 291 290 285 290 294 295 301 305 307 308 312 313 316 323 329 331 331 332 334 338 342 345 348
181 196 202 226 266 303 318 324 320 321 320 315 306 309 310 304 306 304 302 301 301 296 298 304 295 295 299 302 303 304 305 308 310 312 317 323 326 329 331 332 335 337 341 345
188 190 177 177 186 177 19 359 340 329 325 325 327 324 323 315 312 310 308 307 306 309 304 297 298 300 300 299 299 298 302 304 305 307 311 315 316 318 321 323 326 328 331 335
Wind_Speed_850mb
7 1 6 9 20 27 12 23 16 40 35 38 29 8 4 13 23 26 26 27 24 22 17 20 28 31 32 38 45 49 51 55 59 64 69 72 74 76 77 77 78 80 82 82
9 7 11 20 36 24 31 30 31 37 43 30 8 11 12 19 21 19 14 6 5 11 25 29 30 30 33 38 43 51 53 58 65 70 74 77 80 84 87 89 92 95 98 101
12 1 9 16 26 34 21 23 13 17 18 4 9 9 13 11 9 9 15 13 13 18 22 21 20 26 32 36 40 42 52 63 70 71 75 78 84 90 96 100 104 109 113 115
8 6 3 17 6 10 17 16 8 1 8 17 13 12 9 7 12 5 7 14 24 24 21 26 29 34 38 42 47 55 65 68 68 72 77 84 91 96 102 104 108 111 115 117
7 11 11 27 11 12 12 15 10 10 7 21 15 4 7 1 9 19 27 34 25 27 30 31 32 34 40 48 55 62 66 73 77 83 89 91 93 95 97 100 106 109 111 113
4 10 18 12 6 19 15 16 22 26 19 27 15 3 9 23 34 37 36 33 34 34 32 33 36 43 47 51 54 62 73 82 85 87 90 93 94 97 98 97 102 103 109 107
29 12 14 12 20 16 10 17 8 22 23 34 10 21 22 45 38 36 40 39 39 38 35 39 43 46 48 54 63 73 79 84 86 86 89 93 96 95 94 92 90 89 90 88
5 3 15 22 10 13 14 13 12 18 24 30 34 44 50 46 39 40 46 43 40 39 43 43 44 45 51 62 71 77 80 82 82 84 88 89 91 92 85 80 81 83 84 85
20 14 13 34 20 32 34 24 24 29 40 47 56 59 48 48 47 44 46 46 44 46 45 43 43 48 58 67 74 76 78 79 80 84 83 83 84 81 76 74 77 79 79 83
2 12 27 49 58 59 54 54 63 63 58 52 50 56 53 54 56 55 50 47 47 47 43 41 43 51 62 68 71 73 76 77 79 81 82 79 71 67 71 73 76 79 82 89
18 32 45 54 66 73 69 62 58 58 61 56 50 49 53 55 55 51 50 47 49 43 42 41 46 55 61 64 67 69 70 72 75 79 79 75 67 66 66 68 66 74 82 83
27 48 37 42 56 58 48 47 48 54 59 49 45 53 53 51 51 50 47 47 45 45 44 44 52 59 59 60 62 62 67 69 73 76 74 71 72 74 62 62 62 64 68 71
54 70 64 69 68 63 57 64 65 58 50 49 50 49 49 49 49 46 49 41 42 45 43 47 54 55 54 56 54 55 60 65 69 70 68 69 70 73 81 79 72 66 62 63
68 67 53 69 51 63 53 52 48 41 42 45 45 43 45 44 43 44 41 41 43 45 44 49 53 50 51 50 48 49 53 58 63 64 63 62 65 69 72 77 81 87 75 67
73 74 74 69 56 53 52 47 44 44 44 43 42 43 41 42 43 41 37 39 45 46 45 50 52 45 45 43 42 45 50 53 56 58 56 55 59 64 69 72 74 78 80 75
63 58 56 58 58 47 40 40 42 44 43 44 41 40 41 42 41 37 36 42 49 48 44 47 47 43 38 37 39 41 44 47 50 50 50 52 56 61 66 68 69 70 71 71
46 45 45 45 45 40 40 38 38 38 37 36 36 38 37 38 39 38 40 45 50 50 48 47 44 36 33 32 35 38 39 41 45 46 45 47 50 53 57 58 61 63 64 60
51 49 44 38 35 33 32 31 30 30 32 34 37 38 37 38 40 42 44 47 48 46 42 42 37 32 26 29 31 32 33 36 38 41 40 41 42 45 49 51 53 59 63 63
48 42 36 32 28 26 26 27 27 27 28 32 34 36 40 42 46 50 50 52 49 48 33 34 29 25 23 26 28 27 28 31 32 33 34 35 35 38 43 47 49 52 56 61
38 35 31 27 24 23 24 24 23 23 28 31 35 39 43 43 46 49 50 52 43 41 31 25 23 22 23 24 24 23 25 27 29 30 31 31 33 37 39 41 45 48 51 53
32 29 26 23 21 21 21 20 20 22 28 33 38 42 46 46 44 46 46 44 22 26 22 21 23 23 22 21 21 20 23 24 26 27 29 31 31 32 36 39 41 45 48 49
29 25 21 18 16 15 16 18 20 23 26 31 35 38 41 37 35 33 31 30 19 18 18 21 21 21 20 20 19 20 22 23 24 24 25 26 29 31 33 35 38 40 41 43
25 21 19 16 13 12 13 16 19 21 23 26 27 27 29 27 23 24 20 15 18 20 22 19 18 18 18 18 18 19 20 21 21 23 24 25 28 29 30 31 32 35 37 40
22 19 14 10 7 8 12 15 17 19 20 20 20 18 18 17 13 17 20 21 20 22 20 19 18 17 17 18 18 18 20 20 21 22 22 23 25 28 29 30 31 31 32 33
16 15 12 7 5 6 10 12 13 14 13 12 13 14 13 16 20 18 20 21 20 20 20 19 16 17 18 18 19 19 20 21 22 22 22 23 24 26 28 30 31 32 32 32
12 8 5 3 3 4 6 7 7 8 8 8 11 15 14 16 18 19 19 19 18 17 15 16 17 17 18 20 21 22 23 23 23 24 24 24 25 26 27 28 29 30 30 30
7 6 4 3 2 1 1 3 5 7 9 10 9 12 13 15 15 16 16 16 16 17 19 21 21 22 23 25 26 27 27 28 29 29 28 29 29 30 30 30 31 31 31 30
Wind_Direction_850mb
257 350 125 208 257 273 214 243 224 267 268 269 291 312 191 168 179 188 201 215 237 234 260 290 300 308 311 317 325 325 322 321 323 322 321 319 317 314 313 312 311 310 307 305
301 209 248 262 261 262 256 259 253 255 264 276 247 257 208 193 180 172 160 188 233 247 263 281 287 289 289 295 299 305 305 308 313 312 312 312 311 311 310 309 307 304 302 301
264 195 58 309 250 245 234 233 239 246 255 213 266 232 162 169 210 261 279 275 251 265 291 290 289 287 283 277 282 286 295 298 305 308 309 309 308 306 305 303 301 300 299 298
226 45 241 245 248 205 214 242 212 180 231 223 200 174 182 231 277 262 236 260 281 288 286 274 275 282 284 287 291 298 302 307 310 310 308 306 304 302 301 301 299 297 295 294
178 198 305 298 244 184 166 267 193 208 227 197 167 148 256 229 280 298 295 297 283 274 277 276 277 275 284 293 301 306 311 313 312 309 308 308 306 305 303 300 298 296 294 292
75 190 212 239 160 145 114 273 219 222 234 181 166 135 247 311 311 293 280 273 269 269 270 273 283 294 300 304 309 313 314 313 312 313 313 312 311 309 307 305 301 299 295 294
223 229 274 238 172 143 108 264 199 226 226 189 186 219 277 314 301 291 277 268 260 263 269 282 292 299 305 311 316 317 315 314 315 316 315 315 314 314 312 310 307 305 303 304
94 181 270 195 122 166 216 179 211 226 235 219 245 266 288 299 289 281 268 251 252 268 279 287 295 303 310 317 319 316 314 315 317 318 318 318 319 318 316 314 311 311 311 311
188 204 213 186 204 248 253 236 248 255 269 270 272 272 282 287 286 276 265 254 263 275 281 289 298 306 314 319 316 315 316 319 320 320 322 326 322 317 317 317 314 311 309 308
47 215 240 260 265 268 263 259 275 279 279 278 273 281 286 289 281 273 261 262 269 276 279 288 297 309 317 316 314 317 318 321 324 325 329 326 323 324 321 319 316 312 310 309
255 258 260 264 264 268 270 274 276 281 278 278 277 277 288 284 270 259 258 265 275 277 283 290 303 313 316 314 314 317 319 324 327 331 327 327 331 331 322 319 310 306 302 302
251 251 237 252 263 272 266 268 281 282 280 264 271 289 286 272 260 257 258 267 272 279 284 297 307 313 313 313 314 317 322 329 332 331 328 334 335 332 332 324 309 305 302 301
246 257 260 259 266 274 268 278 284 277 263 273 282 280 271 261 259 260 269 269 274 279 289 301 307 312 310 311 312 320 326 331 333 330 333 339 337 333 331 335 332 325 315 311
258 257 259 259 259 272 269 274 268 259 266 270 269 266 262 260 264 270 269 270 274 282 297 303 307 311 308 308 313 322 329 332 334 332 339 340 339 336 333 331 327 332 336 326
253 259 258 263 262 259 262 258 260 266 267 264 264 264 264 266 268 269 271 276 279 289 301 304 306 308 304 305 314 326 329 335 335 337 341 342 340 339 339 335 331 329 331 335
263 262 259 257 257 255 254 258 260 262 263 264 263 261 264 266 267 270 272 279 287 295 300 300 301 301 301 305 316 323 329 337 339 337 343 346 346 345 343 342 341 339 339 341
251 248 246 244 248 252 263 263 262 263 263 261 260 261 261 264 269 276 282 287 292 297 300 299 296 295 297 305 313 322 325 338 338 341 346 350 351 350 351 352 352 351 352 352
254 252 259 260 260 254 254 256 256 254 251 256 260 263 268 276 285 287 290 291 293 295 294 288 286 287 294 303 309 313 325 334 341 343 350 355 357 357 359 2 5 4 6 10
254 255 253 250 248 243 242 244 246 250 255 261 269 278 285 291 293 294 295 293 295 294 287 278 274 282 290 296 302 311 323 330 341 349 356 359 2 4 5 7 9 13 13 15
241 242 241 239 236 238 239 242 250 259 267 276 284 289 291 293 294 296 293 293 296 287 280 267 272 281 284 289 297 307 320 330 340 352 358 2 3 5 7 9 9 13 15 19
227 226 226 224 225 226 233 245 259 270 281 288 292 296 298 300 298 293 291 292 293 277 269 280 283 282 282 287 292 305 315 324 333 344 352 360 4 4 6 9 11 13 14 16
212 211 212 215 218 230 246 262 273 282 289 294 296 298 297 300 296 292 289 293 284 276 274 281 279 280 284 290 299 306 308 313 319 328 337 346 353 358 3 4 6 9 11 13
198 203 204 204 222 247 269 285 295 301 303 302 303 302 304 308 306 301 300 299 286 288 290 287 285 283 285 294 300 305 308 309 312 317 324 333 338 341 346 351 355 358 1 4
191 192 196 209 234 272 292 300 305 310 315 314 314 312 310 311 310 296 290 285 287 290 288 286 285 287 293 297 301 306 308 311 315 317 322 331 333 334 335 339 343 346 347 349
185 189 193 211 258 285 296 309 315 320 318 314 311 310 309 314 311 304 295 294 292 291 290 285 290 294 295 301 305 307 308 312 313 316 323 329 331 331 332 334 338 342 345 348
181 196 202 226 266 303 318 324 320 321 320 315 306 309 310 304 306 304 302 301 301 296 298 304 295 295 299 302 303 304 305 308 310 312 317 323 326 329 331 332 335 337 341 345
188 190 177 177 186 177 19 359 340 329 325 325 327 324 323 315 312 310 308 307 306 309 304 297 298 300 300 299 299 298 302 304 305 307 311 315 316 318 321 323 326 328 331 335